Weather History for Courtland, AL

Change the Weather History Date:

Thursday, July 11, 2013

  Actual Average (KMSL) Record (KMSL)
Temperature  
Mean Temperature 79 °F 80 °F  
Max Temperature 87 °F 91 °F 102 °F (1980)
Min Temperature 71 °F 70 °F 55 °F (1917)
Degree Days  
Heating Degree Days 0 0  
Month to date heating degree days 0  
Since 1 June heating degree days 1  
Since 1 July heating degree days 0  
Cooling Degree Days 14 15  
Month to date cooling degree days 165  
Year to date cooling degree days 771  
Since 1 June cooling degree days 527  
Growing Degree Days 29 (Base 50)    
Moisture  
Dew Point 72 °F    
Average Humidity 88    
Maximum Humidity 100    
Minimum Humidity 58    
Precipitation  
Precipitation 0.00 in 0.14 in 1.74 in (1990)
Month to date precipitation 1.68  
Year to date precipitation 29.94  
Snow  
Snow 0.00 in - - ()
Month to date snowfall  
Since 1 June snowfall  
Since 1 July snowfall  
Snow Depth -    
Sea Level Pressure  
Sea Level Pressure 29.97 in    
Wind  
Wind Speed 4 mph (SSW)    
Max Wind Speed 14 mph    
Max Gust Speed -    
Visibility 10 miles    
Events Rain    
T = Trace of Precipitation, MM = Missing Value Source: NWS Daily Summary

Daily Weather History Graph

Daily Weather History Graph

Search for Another Location

Airport:

Trip Planner

Search our weather history database for the weather conditions in past years. The results will help you decide how hot, cold, wet, or windy it might be!

Date:

Astronomy

Jul. 11, 2013 Rise Set
Actual Time 5:45 AM CDT 8:04 PM CDT
Civil Twilight 5:16 AM CDT 8:33 PM CDT
Nautical Twilight 4:40 AM CDT 9:08 PM CDT
Astronomical Twilight 4:01 AM CDT 9:47 PM CDT
Moon 8:53 AM CDT (7/11) 9:55 PM CDT (7/11)
Length of Visible Light 15h 16m
Length of Day
14h 19m
Waxing Crescent, 11% of the Moon is Illuminated
Jul 11
Waxing Crescent
Jul 15
First Quarter
Jul 22
Full
Jul 29
Last Quarter
Aug 6
New

Hourly Weather History & Observations

Time (CDT) Temp. Heat Index Dew Point Humidity Pressure Visibility Wind Dir Wind Speed Gust Speed Precip Events Conditions
12:15 AM 77.0 °F - 71.6 °F 83% 30.02 in 10.0 mi East 9.2 mph - N/A Rain Rain
12:35 AM 73.4 °F - 73.4 °F 100% 30.00 in 10.0 mi ESE 13.8 mph - N/A   Overcast
12:55 AM 73.4 °F - 71.6 °F 94% 30.01 in 10.0 mi ESE 10.4 mph - N/A   Mostly Cloudy
1:15 AM 71.6 °F - 71.6 °F 100% 30.00 in 10.0 mi East 5.8 mph - N/A   Mostly Cloudy
1:35 AM 71.6 °F - 71.6 °F 100% 29.99 in 10.0 mi ESE 6.9 mph - N/A   Scattered Clouds
1:55 AM 71.6 °F - 71.6 °F 100% 30.00 in 10.0 mi Calm Calm - N/A   Scattered Clouds
2:15 AM 71.6 °F - 71.6 °F 100% 29.99 in 10.0 mi Calm Calm - N/A   Mostly Cloudy
2:35 AM 71.6 °F - 71.6 °F 100% 29.99 in 10.0 mi SSE 3.5 mph - N/A   Scattered Clouds
2:55 AM 71.6 °F - 71.6 °F 100% 29.99 in 10.0 mi South 5.8 mph - N/A   Scattered Clouds
3:15 AM 71.6 °F - 71.6 °F 100% 29.98 in 10.0 mi SSW 3.5 mph - N/A   Mostly Cloudy
3:35 AM 71.6 °F - 71.6 °F 100% 29.99 in 10.0 mi SSW 5.8 mph - N/A   Scattered Clouds
3:55 AM 71.6 °F - 71.6 °F 100% 29.98 in 10.0 mi SSW 3.5 mph - N/A   Scattered Clouds
4:15 AM 71.6 °F - 71.6 °F 100% 29.97 in 10.0 mi SSW 3.5 mph - N/A   Clear
4:35 AM 71.6 °F - 71.6 °F 100% 29.96 in 10.0 mi Calm Calm - N/A   Clear
4:55 AM 71.6 °F - 71.6 °F 100% 29.96 in 10.0 mi SE 4.6 mph - N/A   Clear
5:15 AM 71.6 °F - 71.6 °F 100% 29.97 in 10.0 mi ESE 3.5 mph - N/A   Clear
5:35 AM 71.6 °F - 71.6 °F 100% 29.98 in 10.0 mi Calm Calm - N/A   Clear
5:55 AM 71.6 °F - 71.6 °F 100% 29.97 in 10.0 mi Calm Calm - N/A   Clear
6:15 AM 71.6 °F - 71.6 °F 100% 29.96 in 10.0 mi East 3.5 mph - N/A   Clear
6:35 AM 71.6 °F - 71.6 °F 100% 29.98 in 10.0 mi Calm Calm - N/A   Clear
6:55 AM 71.6 °F - 71.6 °F 100% 29.98 in 10.0 mi Calm Calm - N/A   Clear
7:15 AM 71.6 °F - 71.6 °F 100% 29.98 in 10.0 mi Calm Calm - N/A   Clear
7:35 AM 71.6 °F - 71.6 °F 100% 29.99 in 10.0 mi Calm Calm - N/A   Clear
7:55 AM 73.4 °F - 71.6 °F 94% 29.99 in 10.0 mi SSW 3.5 mph - N/A   Clear
8:15 AM 75.2 °F - 71.6 °F 89% 29.99 in 10.0 mi SSW 3.5 mph - N/A   Clear
8:35 AM 77.0 °F - 73.4 °F 89% 29.99 in 10.0 mi Calm Calm - N/A   Clear
8:55 AM 78.8 °F - 71.6 °F 78% 29.99 in 10.0 mi Calm Calm - N/A   Clear
9:15 AM 80.6 °F 84.6 °F 71.6 °F 74% 29.99 in 10.0 mi South 4.6 mph - N/A   Mostly Cloudy
9:35 AM 80.6 °F 84.6 °F 71.6 °F 74% 29.99 in 10.0 mi SSW 3.5 mph - N/A   Overcast
9:55 AM 80.6 °F 84.6 °F 71.6 °F 74% 29.99 in 10.0 mi Calm Calm - N/A   Overcast
10:15 AM 80.6 °F 84.6 °F 71.6 °F 74% 29.99 in 10.0 mi South 4.6 mph - N/A   Overcast
10:35 AM 80.6 °F 84.6 °F 71.6 °F 74% 29.99 in 10.0 mi Calm Calm - N/A   Overcast
10:55 AM 82.4 °F 87.2 °F 71.6 °F 70% 29.99 in 10.0 mi South 3.5 mph - N/A   Overcast
11:15 AM 82.4 °F 87.2 °F 71.6 °F 70% 29.99 in 10.0 mi SSW 5.8 mph - N/A   Overcast
11:35 AM 82.4 °F 87.2 °F 71.6 °F 70% 29.99 in 10.0 mi SW 5.8 mph - N/A   Overcast
11:55 AM 84.2 °F 89.6 °F 71.6 °F 66% 29.98 in 10.0 mi WSW 4.6 mph - N/A   Overcast
12:15 PM 82.4 °F 87.2 °F 71.6 °F 70% 29.98 in 10.0 mi SSW 4.6 mph - N/A   Overcast
12:35 PM 86.0 °F 91.8 °F 71.6 °F 62% 29.98 in 10.0 mi SW 6.9 mph - N/A   Mostly Cloudy
12:55 PM 87.8 °F 93.8 °F 71.6 °F 58% 29.96 in 10.0 mi South 5.8 mph - N/A   Mostly Cloudy
1:15 PM 86.0 °F 91.8 °F 71.6 °F 62% 29.96 in 10.0 mi SSW 5.8 mph - N/A   Overcast
1:35 PM 82.4 °F 88.2 °F 73.4 °F 74% 29.96 in 5.0 mi Calm Calm - N/A Rain Heavy Rain
1:55 PM 80.6 °F 87.1 °F 77.0 °F 89% 29.95 in 1.0 mi South 5.8 mph - N/A Rain Rain
2:15 PM 78.8 °F - 77.0 °F 94% 29.94 in 10.0 mi South 4.6 mph - N/A   Mostly Cloudy
2:35 PM 77.0 °F - 75.2 °F 94% 29.96 in 10.0 mi SW 5.8 mph - N/A   Mostly Cloudy
2:55 PM 77.0 °F - 73.4 °F 89% 29.95 in 10.0 mi South 3.5 mph - N/A   Mostly Cloudy
3:15 PM 77.0 °F - 73.4 °F 89% 29.95 in 10.0 mi Calm Calm - N/A   Scattered Clouds
3:35 PM 77.0 °F - 73.4 °F 89% 29.94 in 10.0 mi SW 3.5 mph - N/A   Scattered Clouds
3:55 PM 80.6 °F 84.6 °F 71.6 °F 74% 29.93 in 10.0 mi WSW 3.5 mph - N/A   Scattered Clouds
4:15 PM 80.6 °F 84.6 °F 71.6 °F 74% 29.93 in 10.0 mi SSW 6.9 mph - N/A   Scattered Clouds
4:35 PM 78.8 °F - 71.6 °F 78% 29.94 in 10.0 mi SW 5.8 mph - N/A   Clear
4:55 PM 77.0 °F - 71.6 °F 83% 29.93 in 10.0 mi SW 4.6 mph - N/A   Clear
5:15 PM 77.0 °F - 71.6 °F 83% 29.95 in 10.0 mi WSW 3.5 mph - N/A   Clear
5:35 PM 77.0 °F - 73.4 °F 89% 29.93 in 10.0 mi West 9.2 mph - N/A   Light Drizzle
5:55 PM 77.0 °F - 73.4 °F 89% 29.91 in 10.0 mi SW 5.8 mph - N/A   Scattered Clouds
6:15 PM 77.0 °F - 69.8 °F 78% 29.92 in 10.0 mi Calm Calm - N/A   Clear
6:35 PM 78.8 °F - 68.0 °F 69% 29.92 in 10.0 mi Calm Calm - N/A   Scattered Clouds
6:55 PM 77.0 °F - 68.0 °F 74% 29.94 in 10.0 mi North 8.1 mph - N/A   Scattered Clouds
7:15 PM 77.0 °F - 68.0 °F 74% 29.93 in 10.0 mi Calm Calm - N/A   Scattered Clouds
7:35 PM 77.0 °F - 69.8 °F 78% 29.92 in 10.0 mi Calm Calm - N/A   Scattered Clouds
7:55 PM 77.0 °F - 69.8 °F 78% 29.93 in 10.0 mi Calm Calm - N/A   Scattered Clouds
8:15 PM 75.2 °F - 71.6 °F 89% 29.92 in 10.0 mi Calm Calm - N/A   Scattered Clouds
8:35 PM 73.4 °F - 73.4 °F 100% 29.93 in 10.0 mi Calm Calm - N/A   Clear
8:55 PM 73.4 °F - 71.6 °F 94% 29.94 in 10.0 mi Calm Calm - N/A   Scattered Clouds
9:15 PM 73.4 °F - 71.6 °F 94% 29.93 in 10.0 mi Calm Calm - N/A   Mostly Cloudy
9:35 PM 73.4 °F - 73.4 °F 100% 29.94 in 10.0 mi NW 3.5 mph - N/A   Overcast
9:55 PM 73.4 °F - 73.4 °F 100% 29.94 in 10.0 mi North 5.8 mph - N/A   Mostly Cloudy
10:15 PM 73.4 °F - 73.4 °F 100% 29.96 in 10.0 mi Calm Calm - N/A   Mostly Cloudy
10:35 PM 73.4 °F - 73.4 °F 100% 29.96 in 10.0 mi Calm Calm - N/A   Overcast
10:55 PM 71.6 °F - 71.6 °F 100% 29.97 in 10.0 mi Calm Calm - N/A   Mostly Cloudy
11:15 PM 71.6 °F - 71.6 °F 100% 29.97 in 10.0 mi Calm Calm - N/A   Scattered Clouds
11:35 PM 71.6 °F - 71.6 °F 100% 29.97 in 10.0 mi Calm Calm - N/A   Clear
11:55 PM 71.6 °F - 71.6 °F 100% 29.96 in 10.0 mi Calm Calm - N/A   Clear